This is the latest recevied weather packets stored in our database for station/object SQ8AQL-16. If no packets are shown the sender has not sent any weather packets the latest 10 day(s).
| Time | Temp. | Humidity | Pressure | Rain* | Wind** | Luminosity | Snow |
|---|---|---|---|---|---|---|---|
| 1777596145 | 7.22° C | 37% | 1028.9 hPa | - | - | - | - |
| 1777595243 | 7.22° C | 37% | 1028.9 hPa | - | - | - | - |
| 1777594343 | 7.22° C | 37% | 1028.9 hPa | - | - | - | - |
| 1777593442 | 7.22° C | 35% | 1028.9 hPa | - | - | - | - |
| 1777591639 | 7.78° C | 33% | 1029 hPa | - | - | - | - |
| 1777590738 | 8.33° C | 32% | 1028.9 hPa | - | - | - | - |
| 1777589837 | 8.33° C | 33% | 1029 hPa | - | - | - | - |
| 1777588936 | 8.33° C | 31% | 1029 hPa | - | - | - | - |
| 1777588036 | 8.33° C | 32% | 1029 hPa | - | - | - | - |
| 1777587135 | 8.33° C | 33% | 1029 hPa | - | - | - | - |
| 1777586234 | 8.89° C | 32% | 1029 hPa | - | - | - | - |
| 1777585333 | 9.44° C | 30% | 1029 hPa | - | - | - | - |
| 1777584432 | 9.44° C | 30% | 1029 hPa | - | - | - | - |
| 1777583531 | 9.44° C | 30% | 1029.1 hPa | - | - | - | - |
| 1777582631 | 10° C | 30% | 1029.2 hPa | - | - | - | - |
| 1777581729 | 10° C | 30% | 1029.2 hPa | - | - | - | - |
| 1777580829 | 10° C | 30% | 1029.1 hPa | - | - | - | - |
| 1777579928 | 10.56° C | 27% | 1029.2 hPa | - | - | - | - |
| 1777579027 | 10.56° C | 27% | 1029.2 hPa | - | - | - | - |
| 1777578126 | 10.56° C | 27% | 1029 hPa | - | - | - | - |
| 1777577225 | 11.11° C | 23% | 1029 hPa | - | - | - | - |
| 1777576324 | 11.11° C | 23% | 1028.9 hPa | - | - | - | - |
| 1777575424 | 11.11° C | 23% | 1028.9 hPa | - | - | - | - |
| 1777574522 | 11.11° C | 23% | 1028.7 hPa | - | - | - | - |
| 1777573621 | 11.67° C | 23% | 1028.7 hPa | - | - | - | - |
* Rain since midnight (hover to see other rain measurements)
** Current wind speed in m/s (hover to see current wind gust speed)